Location: Berlise
(49.6641°N, 4.1077°E)
Time: 20:09:17
(UTC+00:00)

COSMOS 2428 - Pass Details

Date: 27 January 2021
Orbit: 848 x 855 km, 70.9° (Epoch: 27 February)

Event Time Altitude Azimuth Distance (km) Brightness Sun altitude
Exits shadow 06:07:08 14° 309° (NW) 2,238 4.4 -12.2°
Maximum altitude 06:08:54 15° 330° (NNW) 2,129 4.4 -11.9°
Drops below altitude 10° 06:12:10 10° 5° (N) 2,485 5.0 -11.4°
Sets 06:15:47 0° 28° (NNE) 3,424 6.0 -10.9°
